TimeCST,TemperatureF,Dew PointF,Humidity,Sea Level PressureIn,VisibilityMPH,Wind Direction,Wind SpeedMPH,Gust SpeedMPH,PrecipitationIn,Events,Conditions,WindDirDegrees,DateUTC
12:54 AM,57.0,32.0,39,30.14,10.0,South,10.4,18.4,N/A,,Clear,190,2012-11-19 06:54:00
1:54 AM,57.0,33.1,40,30.14,10.0,South,13.8,19.6,N/A,,Mostly Cloudy,190,2012-11-19 07:54:00
2:54 AM,55.0,37.9,53,30.14,10.0,SSW,17.3,27.6,N/A,,Mostly Cloudy,200,2012-11-19 08:54:00
3:54 AM,53.1,42.1,66,30.12,10.0,South,13.8,23.0,N/A,,Overcast,190,2012-11-19 09:54:00
4:54 AM,51.1,43.0,74,30.12,10.0,South,11.5,-,N/A,,Mostly Cloudy,190,2012-11-19 10:54:00
5:54 AM,50.0,43.0,77,30.13,10.0,South,9.2,-,N/A,,Scattered Clouds,190,2012-11-19 11:54:00
6:54 AM,51.1,43.0,74,30.13,10.0,SSW,9.2,-,N/A,,Overcast,200,2012-11-19 12:54:00
7:54 AM,52.0,43.0,71,30.14,10.0,South,15.0,-,N/A,,Overcast,190,2012-11-19 13:54:00
8:54 AM,54.0,44.1,69,30.14,10.0,SSW,13.8,-,N/A,,Partly Cloudy,200,2012-11-19 14:54:00
9:54 AM,57.0,43.0,59,30.14,10.0,SSW,15.0,26.5,N/A,,Clear,200,2012-11-19 15:54:00
10:54 AM,60.1,44.1,55,30.13,10.0,SSW,11.5,-,N/A,,Clear,210,2012-11-19 16:54:00
11:54 AM,63.0,45.0,52,30.10,10.0,SW,12.7,-,N/A,,Clear,220,2012-11-19 17:54:00
12:54 PM,64.0,45.0,50,30.06,10.0,SSW,10.4,-,N/A,,Clear,210,2012-11-19 18:54:00
1:54 PM,64.9,46.0,50,30.05,10.0,SW,9.2,-,N/A,,Clear,230,2012-11-19 19:54:00
2:54 PM,64.9,46.9,52,30.04,10.0,SSW,8.1,-,N/A,,Clear,210,2012-11-19 20:54:00
3:54 PM,64.0,46.9,54,30.06,10.0,SW,6.9,-,N/A,,Clear,220,2012-11-19 21:54:00
4:54 PM,61.0,46.9,60,30.06,10.0,SSW,6.9,-,N/A,,Clear,200,2012-11-19 22:54:00
5:54 PM,57.9,46.0,65,30.06,10.0,South,4.6,-,N/A,,Clear,190,2012-11-19 23:54:00
6:54 PM,57.0,46.9,69,30.09,10.0,Calm,Calm,-,N/A,,Clear,0,2012-11-20 00:54:00
7:54 PM,54.0,46.0,75,30.09,10.0,Calm,Calm,-,N/A,,Clear,0,2012-11-20 01:54:00
8:54 PM,53.6,46.4,77,30.09,10.0,WSW,4.6,-,N/A,,Clear,240,2012-11-20 02:54:00
9:54 PM,54.0,46.9,77,30.09,10.0,Variable,3.5,-,N/A,,Clear,0,2012-11-20 03:54:00
10:54 PM,52.0,46.0,80,30.09,10.0,SW,4.6,-,N/A,,Clear,220,2012-11-20 04:54:00
11:54 PM,48.9,45.0,86,30.10,7.0,Calm,Calm,-,N/A,,Clear,0,2012-11-20 05:54:00